Location: Parc National du Mont-Orford
(45.3122°N, 72.2403°W)
Time: 15:54:34
(UTC-05:00)

ISS - Visible Passes

Search period start: 19 January 2018 00:00
Search period end: 29 January 2018 00:00
Orbit: 402 x 407 km, 51.6° (Epoch: 20 January)

Date Brightness Start Highest point End Pass type
(mag) Time Alt. Az. Time Alt. Az. Time Alt. Az.
24 Jan -1.0 19:13:27 10° SW 19:13:59 14° SW 19:13:59 14° SW visible
25 Jan -2.5 18:21:35 10° SSW 18:24:08 25° SE 18:24:08 25° SE visible
26 Jan -1.7 17:30:15 10° S 17:32:10 15° SE 17:34:05 10° E visible
26 Jan -2.1 19:04:58 10° WSW 19:06:52 32° WSW 19:06:52 32° WSW visible
27 Jan -3.6 18:12:41 10° SW 18:15:52 55° SE 18:16:50 37° E visible
27 Jan -0.2 19:49:26 10° W 19:49:30 10° W 19:49:30 10° W visible
28 Jan -2.7 17:20:39 10° SSW 17:23:34 31° SE 17:26:30 10° ENE visible
28 Jan -2.7 18:56:47 10° W 18:59:23 42° NW 18:59:23 42° NW visible
